Back to catalog

YAOGAN-47

AliveMilitarySSO
NORAD 66988·PAYLOAD·🇨🇳 China

Launched Dec 9, 2025 from Jiuquan Satellite Launch Center

Loading…

Next Passes (next 24 hours)

TLE

FreshSource: Space-Track

Epoch: Sep 14, 2026, 03:23 UTC

1 66988U 25289A   26257.14140646  .00004462  00000-0  19067-3 0  9993
2 66988  97.4939 327.3946 0002108 264.7540  95.3456 15.23379487 42471

Track YAOGAN-47 in real time with AllMySat

Download on the App Store